GW3897 Weather Reports


time (UTC)temp
F
wind
direction
speed
knots
gust
knots
rain 1hr
in
rain 24hr
in
rain mn
in
humidity
%
barometer
mb
20260906231600 63 195 1.7 6.1 0.00 0.11 0.07 68 1005.5
20260906230057 63 180 2.6 5.2 0.00 0.11 0.07 70 1005.6
20260906224556 62 175 3.5 7.0 0.00 0.11 0.07 70 1005.8
20260906223055 62 180 0.9 5.2 0.00 0.11 0.07 72 1006.0
20260906221557 62 180 1.7 5.2 0.00 0.11 0.07 72 1005.9
20260906220053 61 180 0.9 8.7 0.00 0.11 0.07 74 1005.9
20260906214553 62 180 1.7 4.3 0.00 0.11 0.07 72 1005.9
20260906213057 62 180 1.7 5.2 0.00 0.11 0.07 70 1005.9
20260906211553 63 253 0.0 2.6 0.00 0.11 0.07 69 1005.8
20260906210057 63 231 0.9 5.2 0.00 0.11 0.07 69 1005.8
20260906204609 63 191 0.9 6.1 0.00 0.11 0.07 70 1005.8
20260906203051 63 225 0.9 6.1 0.00 0.11 0.07 71 1005.8
20260906201603 62 255 0.9 7.0 0.00 0.11 0.07 70 1005.9
20260906200051 63 250 0.0 6.1 0.00 0.11 0.07 70 1006.0
20260906194549 63 268 2.6 6.1 0.00 0.11 0.07 68 1006.1
20260906193049 64 265 0.9 6.1 0.00 0.11 0.07 67 1006.0
20260906191548 65 257 1.7 9.6 0.00 0.11 0.07 64 1006.0
20260906190046 65 230 3.5 9.6 0.00 0.11 0.07 63 1005.9
20260906184543 64 199 3.5 10.4 0.00 0.11 0.07 69 1005.8
20260906183040 62 196 4.3 10.4 0.00 0.11 0.07 75 1005.8
20260906181535 60 194 4.3 11.3 0.01 0.11 0.07 82 1006.3
20260906180034 59 219 1.7 7.0 0.03 0.11 0.07 86 1006.7
20260906174528 57 196 3.5 8.7 0.03 0.11 0.07 89 1007.1
20260906173027 55 180 4.3 11.3 0.03 0.11 0.07 90 1007.1
20260906171525 55 180 4.3 9.6 0.02 0.10 0.06 87 1008.3
20260906170024 57 180 4.3 7.8 0.00 0.08 0.04 87 1008.3
20260906164523 57 158 1.7 3.5 0.00 0.08 0.04 87 1008.1
20260906163025 56 158 0.0 0.0 0.01 0.08 0.04 88 1008.1
20260906161523 56 158 0.0 1.7 0.01 0.08 0.04 92 1008.0
20260906160020 55 158 1.7 3.5 0.01 0.08 0.04 91 1008.1
20260906154536 54 176 2.6 7.8 0.01 0.08 0.04 89 1008.6
20260906153019 53 180 3.5 7.8 0.02 0.07 0.03 91 1008.7
20260906151518 53 143 4.3 13.0 0.03 0.07 0.03 90 1008.9
20260906150018 52 180 6.1 13.9 0.03 0.07 0.03 92 1008.9
20260906144519 52 180 9.6 20.0 0.03 0.07 0.03 92 1008.9
20260906143014 54 101 9.6 13.0 0.01 0.05 0.01 85 1009.6
20260906141515 58 180 1.7 4.3 0.00 0.04 0.00 80 1009.3
20260906140025 58 212 3.5 8.7 0.00 0.04 0.00 80 1008.6
20260906134512 58 209 1.7 8.7 0.00 0.08 0.00 79 1008.4
20260906133021 58 207 5.2 9.6 0.00 0.08 0.00 78 1008.4
20260906131509 58 212 4.3 8.7 0.00 0.08 0.00 79 1008.3
20260906130019 58 205 4.3 7.8 0.00 0.08 0.00 79 1008.7
20260906124506 57 173 4.3 8.7 0.00 0.08 0.00 80 1008.6
20260906123006 55 180 2.6 8.7 0.00 0.08 0.00 82 1008.6
20260906121504 57 205 6.1 13.0 0.00 0.08 0.00 83 1008.5
20260906120005 57 209 6.1 14.8 0.00 0.08 0.00 82 1008.4
20260906114508 57 217 6.1 10.4 0.00 0.08 0.00 81 1008.9
20260906113008 56 184 7.0 12.2 0.00 0.08 0.00 81 1008.9
20260906111503 55 179 6.1 10.4 0.00 0.08 0.00 79 1008.6
20260906110003 55 180 6.1 11.3 0.00 0.08 0.00 80 1008.6
20260906104600 55 198 5.2 8.7 0.00 0.08 0.00 78 1008.7
20260906104502 55 186 5.2 8.7 0.00 0.08 0.00 78 1008.7
20260906103101 55 182 6.1 10.4 0.00 0.08 0.00 77 1008.7
20260906101558 56 180 5.2 9.6 0.00 0.08 0.00 76 1008.8
20260906094601 56 193 3.5 7.0 0.00 0.08 0.00 80 1008.9
20260906093055 55 214 2.6 7.0 0.00 0.08 0.00 85 1009.1
20260906091551 54 180 4.3 11.3 0.00 0.08 0.00 88 1009.4
20260906090055 53 172 6.1 18.2 0.00 0.08 0.00 90 1010.0
20260906084554 54 129 8.7 17.4 0.00 0.08 0.00 87 1010.3
20260906083046 56 180 4.3 13.0 0.00 0.08 0.00 82 1010.5
20260906081544 57 186 6.1 12.2 0.00 0.08 0.00 80 1009.4
20260906080052 57 179 7.0 12.2 0.00 0.08 0.00 77 1009.3
20260906074549 58 216 6.1 12.2 0.00 0.08 0.00 76 1009.3
20260906073042 58 205 4.3 10.4 0.00 0.08 0.00 77 1009.5
20260906071539 58 210 4.3 7.8 0.00 0.08 0.00 77 1009.7
20260906070039 57 180 5.2 9.6 0.00 0.08 0.00 78 1010.0
20260906064536 55 181 4.3 9.6 0.00 0.08 0.00 84 1010.4
20260906063037 56 160 5.2 8.7 0.00 0.08 0.00 82 1010.5
20260906061529 58 180 4.3 9.6 0.00 0.08 0.00 73 1010.6
20260906060024 58 181 5.2 9.6 0.01 0.08 0.00 72 1010.5
20260906054546 57 180 6.1 10.4 0.01 0.08 0.08 72 1010.2
20260906053023 56 167 5.2 10.4 0.01 0.08 0.08 76 1010.2
20260906051531 55 180 3.5 8.7 0.01 0.08 0.08 82 1010.4
20260906050028 56 193 6.1 15.6 0.00 0.07 0.07 76 1010.4
20260906044522 57 180 4.3 10.4 0.00 0.07 0.07 72 1011.1
20260906043022 57 180 6.1 12.2 0.02 0.07 0.07 75 1009.7
20260906041523 57 181 6.1 9.6 0.03 0.07 0.07 73 1009.5
20260906040021 57 190 6.1 10.4 0.03 0.07 0.07 74 1009.6
20260906034523 56 180 1.7 7.8 0.03 0.07 0.07 81 1010.1
20260906033020 61 180 3.5 8.7 0.01 0.05 0.05 62 1010.9
20260906031552 61 180 3.5 8.7 0.00 0.04 0.04 55 1010.4
20260906030016 59 186 4.3 7.8 0.00 0.04 0.04 62 1009.2
20260906024535 58 165 0.0 2.6 0.00 0.04 0.04 65 1008.6
20260906023017 59 165 1.7 5.2 0.00 0.04 0.04 62 1008.3
20260906021515 61 180 2.6 7.0 0.00 0.04 0.04 57 1008.4
20260906020014 62 198 2.6 6.1 0.00 0.04 0.04 54 1008.2
20260906014519 63 197 2.6 6.1 0.00 0.04 0.04 54 1008.3
20260906013014 63 191 2.6 7.0 0.00 0.04 0.04 53 1008.3
20260906011512 64 197 4.3 7.8 0.00 0.04 0.04 52 1008.3
20260906010031 65 208 3.5 6.1 0.00 0.04 0.04 53 1008.3
20260906004511 65 205 3.5 8.7 0.00 0.04 0.04 52 1008.3
20260906003010 67 184 4.3 10.4 0.00 0.04 0.04 51 1008.5
20260906001509 68 219 5.2 8.7 0.00 0.04 0.04 49 1008.5
20260906000011 68 200 5.2 8.7 0.00 0.04 0.04 48 1008.6
20260905234507 67 181 4.3 7.8 0.00 0.04 0.04 51 1008.9
20260905233006 69 181 5.2 9.6 0.00 0.04 0.04 48 1008.7